FW6466 Weather Reports


Display with metric or nautical units.
time (UTC)temp
F
wind
direction
speed
MPH
gust
MPH
rain 1hr
in
rain 24hr
in
rain mn
in
humidity
%
barometer
mb
20260510200516 69 325 9.0 21.0 0.00 0.00 0.00 33 1012.9
20260510195517 69 318 5.0 14.0 0.00 0.00 0.00 35 1012.9
20260510194517 69 322 6.0 15.0 0.00 0.00 0.00 34 1013.0
20260510193517 69 324 7.0 17.0 0.00 0.00 0.00 33 1012.9
20260510192820 70 293 5.0 7.0 0.00 0.00 0.00 35 1013.0
20260510191515 69 327 6.0 14.0 0.00 0.00 0.00 34 1013.1
20260510190516 68 319 4.0 14.0 0.00 0.01 0.00 37 1013.2
20260510185517 68 328 8.0 19.0 0.00 0.01 0.00 36 1013.2
20260510184516 67 318 7.0 14.0 0.00 0.01 0.00 37 1013.3
20260510183535 67 270 5.0 12.0 0.00 0.01 0.00 40 1013.3
20260510182820 67 90 5.0 7.0 0.00 0.01 0.00 41 1013.4
20260510182016 66 334 6.0 16.0 0.00 0.01 0.00 42 1013.5
20260510181017 66 316 3.0 13.0 0.00 0.01 0.00 45 1013.5
20260510180410 66 315 3.0 12.0 0.00 0.01 0.00 46 1013.5
20260510175016 65 309 4.0 16.0 0.00 0.01 0.00 48 1013.4
20260510174037 65 347 4.0 15.0 0.00 0.02 0.00 49 1013.3
20260510173017 65 330 5.0 14.0 0.00 0.02 0.00 49 1013.1
20260510172016 64 309 6.0 13.0 0.00 0.02 0.00 49 1013.0
20260510171017 64 316 6.0 13.0 0.00 0.03 0.00 50 1013.1
20260510170016 64 299 6.0 17.0 0.00 0.03 0.00 50 1013.2
20260510165017 65 331 6.0 15.0 0.00 0.03 0.00 50 1013.2
20260510164057 64 327 5.0 19.0 0.00 0.04 0.00 53 1013.1
20260510163016 64 333 4.0 10.0 0.00 0.04 0.00 52 1013.1
20260510162017 62 320 6.0 15.0 0.00 0.05 0.00 51 1013.1
20260510161407 62 293 5.0 12.0 0.00 0.05 0.00 51 1013.3
20260510160517 62 331 5.0 16.0 0.00 0.05 0.00 54 1013.3
20260510155517 61 323 7.0 16.0 0.00 0.06 0.00 55 1013.2
20260510154537 61 313 6.0 15.0 0.00 0.06 0.00 57 1013.2
20260510153536 60 320 5.0 12.0 0.00 0.06 0.00 63 1013.2
20260510152517 59 330 5.0 12.0 0.00 0.07 0.00 69 1013.1
20260510151517 58 330 5.0 12.0 0.00 0.07 0.00 71 1013.0
20260510150536 58 322 5.0 11.0 0.00 0.09 0.00 72 1012.8
20260510145557 58 321 4.0 13.0 0.00 0.09 0.00 73 1012.6
20260510144516 57 316 5.0 13.0 0.00 0.10 0.00 74 1012.4
20260510143600 58 0 4.0 9.0 0.00 0.12 0.00 73 1012.2
20260510142516 59 317 5.0 13.0 0.00 0.13 0.00 72 1012.1
20260510141517 60 322 4.0 9.0 0.00 0.13 0.00 71 1011.9
20260510140536 60 329 4.0 8.0 0.00 0.14 0.00 72 1011.8
20260510135557 60 320 3.0 7.0 0.00 0.16 0.00 72 1011.7
20260510134517 60 333 1.0 4.0 0.00 0.17 0.00 73 1011.6
20260510133656 60 0.0 4.0 0.00 0.18 0.00 73 1011.6
20260510132824 60 225 2.0 2.0 0.00 0.19 0.00 74 1011.6
20260510131518 60 347 2.0 7.0 0.00 0.19 0.00 75 1011.4
20260510130515 59 198 1.0 3.0 0.00 0.20 0.00 76 1011.3
20260510125516 59 58 0.0 1.0 0.00 0.20 0.00 77 1011.2
20260510124517 58 89 0.0 3.0 0.00 0.20 0.00 78 1011.0
20260510123516 57 67 1.0 3.0 0.00 0.21 0.00 78 1011.0
20260510122536 56 106 0.0 3.0 0.00 0.22 0.00 79 1011.0
20260510121515 56 40 1.0 3.0 0.00 0.22 0.00 79 1011.0
20260510120516 55 111 1.0 5.0 0.00 0.22 0.00 80 1011.0
20260510115517 55 152 1.0 4.0 0.00 0.23 0.00 81 1010.8
20260510114516 55 112 1.0 3.0 0.00 0.23 0.00 80 1010.8
20260510113516 54 79 1.0 3.0 0.00 0.23 0.00 80 1010.7
20260510112517 54 118 1.0 4.0 0.00 0.23 0.00 81 1010.6
20260510111516 54 99 2.0 5.0 0.00 0.23 0.00 81 1010.6
20260510110517 54 121 2.0 4.0 0.00 0.23 0.00 81 1010.5
20260510105516 54 93 1.0 4.0 0.00 0.23 0.00 82 1010.4
20260510104516 54 122 2.0 5.0 0.00 0.23 0.00 81 1010.3
20260510103517 54 119 2.0 4.0 0.00 0.23 0.00 81 1010.2
20260510102853 54 135 1.0 1.0 0.00 0.23 0.00 80 1009.9
20260510102016 54 61 1.0 3.0 0.00 0.23 0.00 80 1009.8
20260510101017 54 81 1.0 3.0 0.00 0.23 0.00 81 1009.7
20260510100016 54 96 1.0 3.0 0.00 0.23 0.00 80 1009.6
20260510095037 54 81 1.0 3.0 0.00 0.23 0.00 81 1009.4
20260510094037 54 162 0.0 3.0 0.00 0.23 0.00 81 1009.2
20260510093056 54 91 1.0 4.0 0.00 0.23 0.00 80 1009.1
20260510092356 54 135 1.0 1.0 0.00 0.23 0.00 80 1009.1
20260510091517 54 0.0 4.0 0.00 0.23 0.00 80 1009.0
20260510090516 53 89 2.0 4.0 0.00 0.23 0.00 80 1009.0
20260510085516 53 21 1.0 5.0 0.00 0.23 0.00 81 1008.9
20260510084517 53 109 1.0 3.0 0.00 0.23 0.00 81 1008.9
20260510083516 53 135 0.0 3.0 0.00 0.23 0.00 80 1009.0
20260510082517 53 117 1.0 2.0 0.00 0.23 0.00 81 1009.0
20260510081516 53 86 1.0 5.0 0.00 0.23 0.00 80 1009.0
20260510080517 53 89 2.0 4.0 0.00 0.23 0.00 80 1008.9
20260510075516 53 73 2.0 4.0 0.00 0.23 0.00 81 1008.9
20260510074516 53 90 1.0 4.0 0.00 0.23 0.00 81 1008.7
20260510073517 53 214 2.0 4.0 0.00 0.23 0.00 82 1008.6
20260510072516 53 113 1.0 3.0 0.00 0.23 0.00 80 1008.8
20260510071517 54 149 1.0 3.0 0.00 0.23 0.00 80 1009.0
20260510070517 54 0.0 1.0 0.00 0.23 0.00 79 1009.2
20260510065516 54 127 0.0 2.0 0.00 0.23 0.00 79 1009.6
20260510064517 54 315 0.0 1.0 0.00 0.23 0.00 79 1009.7
20260510063516 54 351 0.0 1.0 0.00 0.23 0.00 79 1009.7
20260510062517 54 270 0.0 2.0 0.00 0.23 0.00 80 1009.7
20260510061515 54 250 0.0 4.0 0.00 0.23 0.00 80 1009.7
20260510060516 54 13 1.0 4.0 0.00 0.23 0.00 81 1009.5
20260510055517 54 109 2.0 4.0 0.00 0.23 0.00 81 1009.4
20260510054516 54 156 1.0 5.0 0.00 0.23 0.00 81 1009.3
20260510053516 54 116 1.0 6.0 0.00 0.23 0.00 81 1009.1
20260510052517 54 88 1.0 4.0 0.00 0.23 0.00 81 1008.9
20260510051557 54 73 1.0 4.0 0.00 0.23 0.00 81 1008.9
20260510050536 54 108 2.0 7.0 0.00 0.23 0.00 81 1008.8
20260510045516 54 128 2.0 6.0 0.00 0.23 0.00 82 1008.8
20260510044518 54 95 2.0 6.0 0.00 0.23 0.00 82 1008.8
20260510043516 54 122 3.0 8.0 0.00 0.23 0.00 82 1008.8
20260510042517 54 86 2.0 6.0 0.00 0.23 0.00 81 1008.9
20260510041518 54 96 2.0 6.0 0.00 0.23 0.00 82 1009.0
20260510040516 54 94 2.0 7.0 0.00 0.23 0.00 82 1009.0
20260510035516 54 122 2.0 5.0 0.00 0.23 0.23 82 1008.9
20260510034516 55 117 3.0 7.0 0.00 0.23 0.23 82 1008.9
20260510033517 55 117 2.0 6.0 0.00 0.23 0.23 82 1009.0
20260510032517 55 151 2.0 6.0 0.00 0.23 0.23 82 1008.8
20260510031516 55 127 2.0 7.0 0.00 0.23 0.23 81 1008.8
20260510030557 55 123 2.0 5.0 0.00 0.23 0.23 82 1008.9
20260510025517 55 107 2.0 5.0 0.00 0.23 0.23 81 1009.0
20260510024516 55 93 2.0 5.0 0.00 0.23 0.23 81 1009.1
20260510023517 55 71 1.0 4.0 0.00 0.23 0.23 81 1009.1
20260510022517 55 97 2.0 4.0 0.00 0.23 0.23 81 1009.1
20260510021516 55 125 2.0 4.0 0.00 0.23 0.23 81 1009.0
20260510020517 55 139 2.0 6.0 0.00 0.23 0.23 81 1009.0
20260510015516 55 124 1.0 4.0 0.00 0.23 0.23 81 1008.9
20260510014517 55 111 1.0 6.0 0.00 0.23 0.23 81 1009.0
20260510013517 55 120 2.0 6.0 0.00 0.23 0.23 81 1008.8
20260510012517 55 123 2.0 6.0 0.00 0.23 0.23 81 1008.8
20260510011516 55 115 1.0 4.0 0.00 0.23 0.23 80 1009.0
20260510010517 55 138 1.0 7.0 0.00 0.23 0.23 81 1008.8
20260510005515 55 148 1.0 3.0 0.00 0.23 0.23 80 1008.7
20260510004516 55 176 1.0 3.0 0.00 0.23 0.23 80 1008.6
20260510003517 55 124 1.0 4.0 0.00 0.23 0.23 79 1008.6
20260510002535 55 145 1.0 5.0 0.00 0.23 0.23 79 1008.5
20260510001516 56 138 1.0 5.0 0.00 0.23 0.23 78 1008.3
20260510000517 56 118 1.0 3.0 0.00 0.23 0.23 78 1008.1
20260509235516 57 103 1.0 3.0 0.00 0.23 0.23 77 1008.0
20260509234517 57 106 1.0 3.0 0.00 0.23 0.23 77 1007.9
20260509233515 57 100 1.0 2.0 0.00 0.23 0.23 77 1007.9
20260509232516 57 97 1.0 3.0 0.00 0.23 0.23 77 1007.9
20260509231519 58 151 0.0 2.0 0.00 0.23 0.23 77 1007.7
20260509230516 58 110 1.0 3.0 0.00 0.23 0.23 77 1007.7
20260509225518 58 105 1.0 5.0 0.00 0.23 0.23 77 1007.8
20260509224516 58 100 2.0 5.0 0.00 0.23 0.23 78 1007.8
20260509223516 58 94 1.0 3.0 0.00 0.23 0.23 78 1007.8
20260509222555 58 116 1.0 3.0 0.00 0.23 0.23 77 1007.8
20260509221536 57 122 2.0 5.0 0.00 0.23 0.23 79 1007.9
20260509220637 57 109 1.0 2.0 0.00 0.23 0.23 79 1008.0
20260509215516 56 190 0.0 2.0 0.00 0.23 0.23 79 1008.1
20260509214516 56 89 2.0 4.0 0.00 0.23 0.23 80 1008.2
20260509213557 56 16 1.0 4.0 0.00 0.23 0.23 80 1008.2
20260509212516 55 109 2.0 6.0 0.00 0.23 0.23 80 1008.2
20260509211517 55 93 1.0 5.0 0.00 0.23 0.23 80 1008.3
20260509210516 54 86 2.0 6.0 0.00 0.23 0.23 80 1008.3
20260509205516 54 102 2.0 4.0 0.00 0.23 0.23 81 1008.4
20260509204517 54 97 1.0 5.0 0.00 0.23 0.23 81 1008.5
20260509203538 53 84 1.0 4.0 0.00 0.23 0.23 81 1008.7
20260509202517 53 96 2.0 9.0 0.00 0.23 0.23 82 1008.7
20260509201516 53 90 2.0 6.0 0.00 0.23 0.23 81 1008.8